Weather observations for the past three days for
Wenatchee - Pangborn Memorial Airport
Imperial (Metric)
Date Time (pdt) Wind (mph) Vis. (mi.) Weather Sky Cond. Temperature (ºF) Relative Humidity Wind Chill (°F) Heat Index (°F) Pressure Precipitation (in)
Air Dwpt 6 hour altimeter (in) sea level (mb) 1 hr 3 hr 6 hr
Max. Min.
12 10:55 W 8 10.00 Fair CLR 82.9 51.1 82.9 70 33% 81 29.99 1014.5
12 09:55 NW 13 10.00 Fair CLR 81 50 34% 80 30 1014.8
12 08:55 NW 15 10.00 Fair CLR 77 51.1 40% 78 30.01 1015.1
12 07:55 NW 16 10.00 Fair CLR 73.9 51.1 45% 30.02 1015.2
12 06:55 NW 17 10.00 Fair CLR 72 51.1 48% 30.01 1014.9
12 05:55 NW 16 G 23 10.00 Fair CLR 70 51.1 51% 29.99 1014.5
12 04:55 NW 14 10.00 Fair CLR 71.1 51.1 79 71.1 49% 29.98 1014.0
12 03:55 NW 15 10.00 Fair CLR 72 51.1 48% 29.97 1013.5
12 02:55 NW 14 10.00 Fair CLR 73 52 48% 29.96 1013.4
12 01:55 NW 13 10.00 Fair CLR 73 52 48% 29.96 1013.2
12 00:55 NW 14 10.00 Fair CLR 75 52 45% 78 29.96 1013.3
11 23:55 NW 15 10.00 Fair CLR 77 52 42% 78 29.95 1013.0
11 22:55 NW 12 10.00 Fair CLR 78.1 52 96.1 78.1 40% 79 29.94 1012.6
11 21:55 W 10 10.00 Fair CLR 81 51.1 35% 80 29.93 1012.3
11 20:55 NW 18 10.00 Fair CLR 84 50 31% 82 29.9 1011.4
11 19:55 NW 18 10.00 Fair CLR 89.1 50 26% 86 29.88 1010.7
11 18:55 NW 20 10.00 Fair CLR 93 44.1 18% 89 29.87 1010.4
11 17:55 NW 18 G 24 10.00 Fair CLR 95 46 19% 91 29.87 1010.1
11 16:55 NW 9 G 17 10.00 Fair CLR 95 45 96.1 84.9 18% 91 29.88 1010.6
11 15:55 NW 8 10.00 Fair CLR 95 44.1 17% 91 29.9 1011.1
11 14:55 Vrbl 3 10.00 Fair CLR 93 41 16% 89 29.92 1011.8
11 13:55 S 7 10.00 Fair CLR 91 37.9 15% 87 29.93 1012.3
11 12:55 W 7 10.00 Fair CLR 90 37 15% 86 29.95 1013.0
11 11:55 W 10 G 17 10.00 Fair CLR 89.1 41 19% 85 29.97 1013.6
11 10:55 NW 12 10.00 Fair CLR 84.9 44.1 86 72 24% 82 29.98 1014.0
11 09:55 NW 12 10.00 Fair CLR 82 46 28% 80 29.99 1014.2
11 08:55 NW 13 10.00 Fair CLR 78.1 46.9 33% 78 29.99 1014.4
11 07:55 NW 12 10.00 Fair CLR 75 46 36% 77 29.99 1014.4
11 06:55 NW 14 10.00 Fair CLR 73.9 45 36% 29.98 1014.0
11 05:55 W 16 10.00 Fair CLR 73 42.1 33% 29.97 1013.7
11 04:55 NW 14 10.00 Fair CLR 73 41 82 73 32% 29.97 1013.5
11 03:55 NW 15 10.00 Fair CLR 73.9 39 28% 29.95 1013.0
11 02:55 NW 15 G 22 10.00 Fair CLR 75 41 29% 77 29.94 1012.6
11 01:55 W 17 10.00 Fair CLR 75.9 43 31% 77 29.93 1012.2
11 00:55 W 16 G 26 10.00 Fair CLR 78.1 42.1 28% 78 29.93 1012.2
10 23:55 W 16 10.00 Fair CLR 79 43 28% 78 29.93 1012.2
10 22:55 W 20 10.00 Fair CLR 82 42.1 100.9 82 24% 80 29.91 1011.6
10 21:55 NW 12 10.00 Fair CLR 84 39.9 21% 81 29.91 1011.6
10 20:55 NW 21 10.00 Fair and Breezy CLR 87.1 36 16% 84 29.87 1010.2
10 19:55 NW 18 G 24 10.00 Fair CLR 91.9 37 14% 88 29.86 1009.7
10 18:55 W 18 G 32 10.00 Fair CLR 96.1 37.9 13% 91 29.84 1009.2
10 17:55 NW 24 10.00 Fair and Breezy CLR 98.1 39 13% 93 29.83 1008.7
10 16:55 NW 22 G 33 10.00 Fair and Breezy CLR 100.9 42.1 105.1 95 13% 96 29.83 1008.7
10 15:55 NW 23 10.00 Fair and Breezy CLR 104 46 14% 100 29.82 1008.3
10 14:55 NW 9 G 24 10.00 Fair CLR 102 46.9 15% 98 29.83 1008.7
10 13:55 NW 15 G 24 10.00 Fair CLR 102 45 14% 98 29.84 1009.0
10 12:55 W 15 10.00 Fair CLR 100 45 15% 96 29.86 1009.5
10 11:55 NW 16 G 24 10.00 Fair CLR 98.1 46 17% 94 29.87 1010.1
10 10:55 NW 16 10.00 Fair CLR 95 46.9 95 75 19% 91 29.88 1010.4
10 09:55 NW 15 10.00 Fair CLR 91 48 23% 88 29.88 1010.4
10 08:55 NW 14 10.00 Fair CLR 87.1 46.9 25% 84 29.89 1010.6
10 07:55 NW 13 10.00 Fair CLR 82.9 48 30% 81 29.88 1010.4
10 06:55 W 8 10.00 Fair CLR 77 48.9 37% 78 29.87 1010.1
10 05:55 NW 10 10.00 Fair CLR 77 46.9 35% 78 29.87 1010.0
10 04:55 W 8 10.00 Fair CLR 77 48 88 75.9 36% 78 29.85 1009.5
10 03:55 W 8 10.00 Fair CLR 77 48 36% 78 29.84 1009.1
10 02:55 Calm 10.00 Fair CLR 79 46.9 32% 79 29.83 1008.7
10 01:55 W 9 10.00 Fair CLR 82 46 28% 80 29.83 1008.7
10 00:55 NW 12 10.00 Fair CLR 86 43 22% 83 29.82 1008.4
09 23:55 NW 10 10.00 Fair CLR 87.1 43 21% 84 29.82 1008.3
09 22:55 NW 7 10.00 Fair CLR 88 46.9 102.9 87.1 24% 85 29.81 1008.0
09 21:55 NW 9 10.00 Fair CLR 91.9 48 22% 89 29.79 1007.4
09 20:55 E 8 10.00 Fair CLR 89.1 53.1 29% 87 29.76 1006.6
09 19:55 E 8 10.00 Fair CLR 93.9 52 24% 91 29.76 1006.4
09 18:55 E 7 10.00 Fair CLR 98.1 51.1 20% 95 29.76 1006.4
09 17:55 SE 7 10.00 Fair CLR 102 48.9 17% 99 29.77 1006.6
09 16:55 SE 12 10.00 Fair CLR 102 48.9 104 88 17% 99 29.78 1006.9
09 15:55 SE 14 10.00 Fair CLR 102.9 50 17% 100 29.8 1007.5
09 14:55 SE 13 10.00 Fair CLR 102 48.9 17% 99 29.81 1007.9
09 13:55 SE 9 10.00 Fair CLR 100 48 17% 97 29.83 1008.5
09 12:55 E 8 10.00 Fair CLR 98.1 51.1 20% 95 29.84 1009.2
09 11:55 Vrbl 3 10.00 Fair CLR 93 51.1 24% 90 29.86 1009.7
Date Time (pdt) Wind (mph) Vis. (mi.) Weather Sky Cond. Air Dwpt Max. Min. Relative Humidity Wind Chill (°F) Heat Index (°F) altimeter (in) sea level (mb) 1 hr 3 hr 6 hr
6 hour
Temperature (ºF) Pressure Precipitation (in)